Time,TemperatureF,DewpointF,PressureIn,WindDirection,WindDirectionDegrees,WindSpeedMPH,WindSpeedGustMPH,Humidity,HourlyPrecipIn,Conditions,Clouds,dailyrainin,SoftwareType,DateUTC
2013-08-18 00:00:00,64.7,58.0,30.12,SSE,160,0.0,7.0,79,0.00,,,0.00,Wunderground v.1.15,2013-08-18 05:00:00,
2013-08-18 00:06:00,64.5,57.8,30.12,SSE,160,0.0,7.0,79,0.00,,,0.00,Wunderground v.1.15,2013-08-18 05:06:00,
2013-08-18 00:12:00,64.3,58.0,30.12,SSE,161,0.0,7.0,80,0.00,,,0.00,Wunderground v.1.15,2013-08-18 05:12:00,
2013-08-18 00:18:00,64.2,57.9,30.12,SSE,160,0.0,7.0,80,0.00,,,0.00,Wunderground v.1.15,2013-08-18 05:18:00,
2013-08-18 00:24:00,64.1,57.8,30.12,SSE,160,0.0,7.0,80,0.00,,,0.00,Wunderground v.1.15,2013-08-18 05:24:00,
2013-08-18 00:29:00,64.0,57.7,30.12,SSE,161,0.0,7.0,80,0.00,,,0.00,Wunderground v.1.15,2013-08-18 05:29:00,
2013-08-18 00:35:00,64.0,57.7,30.12,SSE,160,0.0,7.0,80,0.00,,,0.00,Wunderground v.1.15,2013-08-18 05:35:00,
2013-08-18 00:41:00,63.9,57.6,30.12,SSE,161,0.0,7.0,80,0.00,,,0.00,Wunderground v.1.15,2013-08-18 05:41:00,
2013-08-18 00:47:00,63.7,57.4,30.12,SSE,161,0.0,7.0,80,0.00,,,0.00,Wunderground v.1.15,2013-08-18 05:47:00,
2013-08-18 00:52:00,63.5,57.6,30.12,SSE,160,0.0,7.0,81,0.00,,,0.00,Wunderground v.1.15,2013-08-18 05:52:00,
2013-08-18 00:58:00,63.4,57.5,30.12,SSE,161,0.0,7.0,81,0.00,,,0.00,Wunderground v.1.15,2013-08-18 05:58:00,
2013-08-18 01:04:00,63.3,57.4,30.12,SSE,160,0.0,7.0,81,0.00,,,0.00,Wunderground v.1.15,2013-08-18 06:04:00,
2013-08-18 01:10:00,63.3,57.4,30.12,SSE,161,0.0,7.0,81,0.00,,,0.00,Wunderground v.1.15,2013-08-18 06:10:00,
2013-08-18 01:15:00,63.3,57.4,30.12,SSE,160,0.0,7.0,81,0.00,,,0.00,Wunderground v.1.15,2013-08-18 06:15:00,
2013-08-18 01:21:00,63.2,57.3,30.12,SSE,161,0.0,7.0,81,0.00,,,0.00,Wunderground v.1.15,2013-08-18 06:21:00,
2013-08-18 01:27:00,63.2,57.3,30.12,SSE,160,0.0,7.0,81,0.00,,,0.00,Wunderground v.1.15,2013-08-18 06:27:00,
2013-08-18 01:33:00,63.0,57.1,30.12,SSE,160,0.0,7.0,81,0.00,,,0.00,Wunderground v.1.15,2013-08-18 06:33:00,
2013-08-18 01:38:00,62.8,56.9,30.12,SSE,160,0.0,7.0,81,0.00,,,0.00,Wunderground v.1.15,2013-08-18 06:38:00,
2013-08-18 01:44:00,62.7,56.8,30.12,SSE,160,0.0,7.0,81,0.00,,,0.00,Wunderground v.1.15,2013-08-18 06:44:00,
2013-08-18 01:50:00,62.6,56.7,30.12,SSE,160,0.0,7.0,81,0.00,,,0.00,Wunderground v.1.15,2013-08-18 06:50:00,
2013-08-18 01:56:00,62.5,56.6,30.12,SSE,160,0.0,7.0,81,0.00,,,0.00,Wunderground v.1.15,2013-08-18 06:56:00,
2013-08-18 02:01:00,62.4,56.8,30.12,SSE,160,0.0,7.0,82,0.00,,,0.00,Wunderground v.1.15,2013-08-18 07:01:00,
2013-08-18 02:07:00,62.3,56.7,30.12,SSE,160,0.0,7.0,82,0.00,,,0.00,Wunderground v.1.15,2013-08-18 07:07:00,
2013-08-18 02:13:00,62.2,56.6,30.12,SSE,160,0.0,7.0,82,0.00,,,0.00,Wunderground v.1.15,2013-08-18 07:13:00,
2013-08-18 02:18:00,62.2,56.6,30.12,SSE,160,0.0,7.0,82,0.00,,,0.00,Wunderground v.1.15,2013-08-18 07:18:00,
2013-08-18 02:24:00,62.1,56.5,30.12,SSE,160,0.0,7.0,82,0.00,,,0.00,Wunderground v.1.15,2013-08-18 07:24:00,
2013-08-18 02:30:00,62.0,56.4,30.12,SSE,160,0.0,7.0,82,0.00,,,0.00,Wunderground v.1.15,2013-08-18 07:30:00,
2013-08-18 02:36:00,61.9,56.3,30.12,SSE,160,0.0,7.0,82,0.00,,,0.00,Wunderground v.1.15,2013-08-18 07:36:00,
2013-08-18 02:41:00,61.7,56.5,30.12,SSE,160,0.0,7.0,83,0.00,,,0.00,Wunderground v.1.15,2013-08-18 07:41:00,
2013-08-18 02:47:00,61.7,56.5,30.12,SSE,160,0.0,7.0,83,0.00,,,0.00,Wunderground v.1.15,2013-08-18 07:47:00,
2013-08-18 02:53:00,61.6,56.0,30.11,SSE,160,0.0,7.0,82,0.00,,,0.00,Wunderground v.1.15,2013-08-18 07:53:00,
2013-08-18 02:59:00,61.4,56.2,30.11,SSE,160,0.0,7.0,83,0.00,,,0.00,Wunderground v.1.15,2013-08-18 07:59:00,
2013-08-18 03:04:00,61.3,56.1,30.11,SSE,160,0.0,7.0,83,0.00,,,0.00,Wunderground v.1.15,2013-08-18 08:04:00,
2013-08-18 03:10:00,61.1,55.9,30.11,SSE,160,0.0,7.0,83,0.00,,,0.00,Wunderground v.1.15,2013-08-18 08:10:00,
2013-08-18 03:16:00,60.9,56.0,30.11,SSE,160,0.0,7.0,84,0.00,,,0.00,Wunderground v.1.15,2013-08-18 08:16:00,
2013-08-18 03:22:00,61.0,56.1,30.11,SSE,160,0.0,7.0,84,0.00,,,0.00,Wunderground v.1.15,2013-08-18 08:22:00,
2013-08-18 03:28:00,61.0,56.1,30.11,SSE,160,0.0,7.0,84,0.00,,,0.00,Wunderground v.1.15,2013-08-18 08:28:00,
2013-08-18 03:34:00,61.0,56.1,30.11,SSE,160,0.0,7.0,84,0.00,,,0.00,Wunderground v.1.15,2013-08-18 08:34:00,
2013-08-18 03:40:00,60.8,55.9,30.11,SSE,160,0.0,7.0,84,0.00,,,0.00,Wunderground v.1.15,2013-08-18 08:40:00,
2013-08-18 03:45:00,60.8,55.9,30.11,SSE,160,0.0,7.0,84,0.00,,,0.00,Wunderground v.1.15,2013-08-18 08:45:00,
2013-08-18 03:51:00,60.8,55.9,30.11,SSE,162,0.0,7.0,84,0.00,,,0.00,Wunderground v.1.15,2013-08-18 08:51:00,
2013-08-18 03:57:00,60.7,55.8,30.12,South,180,0.0,7.0,84,0.00,,,0.00,Wunderground v.1.15,2013-08-18 08:57:00,
2013-08-18 04:02:00,60.7,55.8,30.12,South,179,0.0,7.0,84,0.00,,,0.00,Wunderground v.1.15,2013-08-18 09:02:00,
2013-08-18 04:07:00,60.5,56.0,30.12,South,176,0.0,7.0,85,0.00,,,0.00,Wunderground v.1.15,2013-08-18 09:07:00,
2013-08-18 04:13:00,60.5,56.0,30.12,South,176,0.0,7.0,85,0.00,,,0.00,Wunderground v.1.15,2013-08-18 09:13:00,
2013-08-18 04:19:00,60.3,55.8,30.12,South,176,0.0,7.0,85,0.00,,,0.00,Wunderground v.1.15,2013-08-18 09:19:00,
2013-08-18 04:25:00,60.0,55.8,30.12,South,176,0.0,7.0,86,0.00,,,0.00,Wunderground v.1.15,2013-08-18 09:25:00,
2013-08-18 04:30:00,59.9,55.7,30.12,South,176,0.0,7.0,86,0.00,,,0.00,Wunderground v.1.15,2013-08-18 09:30:00,
2013-08-18 04:36:00,59.7,55.5,30.12,South,176,0.0,7.0,86,0.00,,,0.00,Wunderground v.1.15,2013-08-18 09:36:00,
2013-08-18 04:42:00,59.5,55.6,30.12,South,176,0.0,7.0,87,0.00,,,0.00,Wunderground v.1.15,2013-08-18 09:42:00,
2013-08-18 04:48:00,59.3,55.4,30.12,South,176,0.0,7.0,87,0.00,,,0.00,Wunderground v.1.15,2013-08-18 09:48:00,
2013-08-18 04:53:00,59.1,55.2,30.12,South,176,0.0,7.0,87,0.00,,,0.00,Wunderground v.1.15,2013-08-18 09:53:00,
2013-08-18 04:59:00,59.0,55.1,30.13,South,176,0.0,7.0,87,0.00,,,0.00,Wunderground v.1.15,2013-08-18 09:59:00,
2013-08-18 05:05:00,58.8,55.3,30.12,South,176,0.0,7.0,88,0.00,,,0.00,Wunderground v.1.15,2013-08-18 10:05:00,
2013-08-18 05:11:00,58.8,55.3,30.12,South,176,0.0,7.0,88,0.00,,,0.00,Wunderground v.1.15,2013-08-18 10:11:00,
2013-08-18 05:16:00,58.7,55.2,30.12,South,175,0.0,7.0,88,0.00,,,0.00,Wunderground v.1.15,2013-08-18 10:16:00,
2013-08-18 05:22:00,58.6,55.1,30.12,South,176,0.0,7.0,88,0.00,,,0.00,Wunderground v.1.15,2013-08-18 10:22:00,
2013-08-18 05:28:00,58.4,55.2,30.13,South,176,0.0,7.0,89,0.00,,,0.00,Wunderground v.1.15,2013-08-18 10:28:00,
2013-08-18 05:34:00,58.3,55.1,30.13,South,176,0.0,7.0,89,0.00,,,0.00,Wunderground v.1.15,2013-08-18 10:34:00,
2013-08-18 05:40:00,58.2,55.0,30.13,South,176,0.0,7.0,89,0.00,,,0.00,Wunderground v.1.15,2013-08-18 10:40:00,
2013-08-18 05:46:00,58.0,54.8,30.13,South,176,0.0,7.0,89,0.00,,,0.00,Wunderground v.1.15,2013-08-18 10:46:00,
2013-08-18 05:52:00,57.8,54.9,30.13,South,176,0.0,7.0,90,0.00,,,0.00,Wunderground v.1.15,2013-08-18 10:52:00,
2013-08-18 05:57:00,57.7,54.8,30.13,South,175,0.0,7.0,90,0.00,,,0.00,Wunderground v.1.15,2013-08-18 10:57:00,
2013-08-18 06:02:00,57.5,54.6,30.13,South,176,0.0,7.0,90,0.00,,,0.00,Wunderground v.1.15,2013-08-18 11:02:00,
2013-08-18 06:08:00,57.3,54.4,30.13,South,176,0.0,7.0,90,0.00,,,0.00,Wunderground v.1.15,2013-08-18 11:08:00,
2013-08-18 06:14:00,57.2,54.3,30.13,South,176,0.0,7.0,90,0.00,,,0.00,Wunderground v.1.15,2013-08-18 11:14:00,
2013-08-18 06:19:00,57.1,54.5,30.13,South,176,0.0,7.0,91,0.00,,,0.00,Wunderground v.1.15,2013-08-18 11:19:00,
2013-08-18 06:25:00,57.1,54.5,30.14,South,176,0.0,7.0,91,0.00,,,0.00,Wunderground v.1.15,2013-08-18 11:25:00,
2013-08-18 06:31:00,57.1,54.5,30.14,South,176,0.0,7.0,91,0.00,,,0.00,Wunderground v.1.15,2013-08-18 11:31:00,
2013-08-18 06:37:00,57.1,54.5,30.14,South,176,0.0,7.0,91,0.00,,,0.00,Wunderground v.1.15,2013-08-18 11:37:00,
2013-08-18 06:43:00,57.1,54.5,30.14,South,176,0.0,7.0,91,0.00,,,0.00,Wunderground v.1.15,2013-08-18 11:43:00,
2013-08-18 06:49:00,57.2,54.6,30.14,South,176,0.0,7.0,91,0.00,,,0.00,Wunderground v.1.15,2013-08-18 11:49:00,
2013-08-18 06:55:00,57.3,54.7,30.14,South,176,0.0,7.0,91,0.00,,,0.00,Wunderground v.1.15,2013-08-18 11:55:00,
2013-08-18 07:01:00,57.4,54.8,30.15,South,176,0.0,7.0,91,0.00,,,0.00,Wunderground v.1.15,2013-08-18 12:01:00,
2013-08-18 07:06:00,57.6,54.7,30.15,South,176,0.0,7.0,90,0.00,,,0.00,Wunderground v.1.15,2013-08-18 12:06:00,
2013-08-18 07:12:00,57.8,54.9,30.15,South,175,0.0,7.0,90,0.00,,,0.00,Wunderground v.1.15,2013-08-18 12:12:00,
2013-08-18 07:18:00,58.0,55.1,30.15,South,176,0.0,7.0,90,0.00,,,0.00,Wunderground v.1.15,2013-08-18 12:18:00,
2013-08-18 07:24:00,58.2,55.3,30.15,South,176,0.0,7.0,90,0.00,,,0.00,Wunderground v.1.15,2013-08-18 12:24:00,
2013-08-18 07:29:00,58.4,55.2,30.15,South,176,0.0,7.0,89,0.00,,,0.00,Wunderground v.1.15,2013-08-18 12:29:00,
2013-08-18 07:35:00,58.7,55.5,30.15,South,175,0.0,7.0,89,0.00,,,0.00,Wunderground v.1.15,2013-08-18 12:35:00,
2013-08-18 07:41:00,58.9,55.4,30.15,South,176,0.0,7.0,88,0.00,,,0.00,Wunderground v.1.15,2013-08-18 12:41:00,
2013-08-18 07:47:00,59.1,55.5,30.15,South,176,0.0,7.0,88,0.00,,,0.00,Wunderground v.1.15,2013-08-18 12:47:00,
2013-08-18 07:53:00,59.4,55.8,30.15,South,176,0.0,7.0,88,0.00,,,0.00,Wunderground v.1.15,2013-08-18 12:53:00,
2013-08-18 07:59:00,59.8,56.2,30.15,South,176,0.0,7.0,88,0.00,,,0.00,Wunderground v.1.15,2013-08-18 12:59:00,
2013-08-18 08:05:00,60.1,56.2,30.15,South,176,0.0,7.0,87,0.00,,,0.00,Wunderground v.1.15,2013-08-18 13:05:00,
2013-08-18 08:10:00,60.5,56.6,30.15,SSE,155,0.0,7.0,87,0.00,,,0.00,Wunderground v.1.15,2013-08-18 13:10:00,
2013-08-18 08:16:00,60.8,56.6,30.15,ESE,116,0.0,7.0,86,0.00,,,0.00,Wunderground v.1.15,2013-08-18 13:16:00,
2013-08-18 08:22:00,61.2,57.0,30.15,ENE,77,0.0,7.0,86,0.00,,,0.00,Wunderground v.1.15,2013-08-18 13:22:00,
2013-08-18 08:28:00,61.7,57.1,30.16,ENE,72,0.0,7.0,85,0.00,,,0.00,Wunderground v.1.15,2013-08-18 13:28:00,
2013-08-18 08:33:00,62.5,57.9,30.16,ENE,75,0.0,7.0,85,0.00,,,0.00,Wunderground v.1.15,2013-08-18 13:33:00,
2013-08-18 08:39:00,63.6,58.3,30.16,East,98,0.0,7.0,83,0.00,,,0.00,Wunderground v.1.15,2013-08-18 13:39:00,
2013-08-18 08:45:00,64.5,58.5,30.16,ENE,73,0.0,7.0,81,0.00,,,0.00,Wunderground v.1.15,2013-08-18 13:45:00,
2013-08-18 08:51:00,65.3,58.6,30.15,East,85,0.0,7.0,79,0.00,,,0.00,Wunderground v.1.15,2013-08-18 13:51:00,
2013-08-18 08:57:00,66.3,59.2,30.15,ENE,74,0.0,7.0,78,0.00,,,0.00,Wunderground v.1.15,2013-08-18 13:57:00,
2013-08-18 09:02:00,66.9,59.8,30.15,ENE,78,0.0,7.0,78,0.00,,,0.00,Wunderground v.1.15,2013-08-18 14:02:00,
2013-08-18 09:08:00,67.2,59.7,30.15,East,86,0.0,7.0,77,0.00,,,0.00,Wunderground v.1.15,2013-08-18 14:08:00,
2013-08-18 09:13:00,67.6,59.8,30.15,ENE,76,0.0,7.0,76,0.00,,,0.00,Wunderground v.1.15,2013-08-18 14:13:00,
2013-08-18 09:18:00,68.2,60.3,30.15,ENE,77,0.0,7.0,76,0.00,,,0.00,Wunderground v.1.15,2013-08-18 14:18:00,
2013-08-18 09:24:00,69.1,60.8,30.15,ENE,77,0.0,7.0,75,0.00,,,0.00,Wunderground v.1.15,2013-08-18 14:24:00,
2013-08-18 09:29:00,68.9,60.6,30.15,NE,43,0.0,7.0,75,0.00,,,0.00,Wunderground v.1.15,2013-08-18 14:29:00,
2013-08-18 09:35:00,69.7,61.0,30.15,ENE,77,0.0,7.0,74,0.00,,,0.00,Wunderground v.1.15,2013-08-18 14:35:00,
2013-08-18 09:41:00,70.2,61.5,30.15,East,80,1.0,7.0,74,0.00,,,0.00,Wunderground v.1.15,2013-08-18 14:41:00,
2013-08-18 09:46:00,71.1,62.0,30.15,NE,41,1.0,7.0,73,0.00,,,0.00,Wunderground v.1.15,2013-08-18 14:46:00,
2013-08-18 09:52:00,71.6,61.7,30.15,NNE,30,1.0,7.0,71,0.00,,,0.00,Wunderground v.1.15,2013-08-18 14:52:00,
2013-08-18 09:58:00,71.9,62.0,30.15,ENE,70,1.0,7.0,71,0.00,,,0.00,Wunderground v.1.15,2013-08-18 14:58:00,
2013-08-18 10:04:00,72.1,61.8,30.15,ENE,69,1.0,7.0,70,0.00,,,0.00,Wunderground v.1.15,2013-08-18 15:04:00,
2013-08-18 10:09:00,72.9,62.1,30.15,NE,49,1.0,7.0,69,0.00,,,0.00,Wunderground v.1.15,2013-08-18 15:09:00,
2013-08-18 10:15:00,73.5,61.9,30.15,NE,51,1.0,7.0,67,0.00,,,0.00,Wunderground v.1.15,2013-08-18 15:15:00,
2013-08-18 10:21:00,73.5,61.9,30.15,ENE,77,2.0,7.0,67,0.00,,,0.00,Wunderground v.1.15,2013-08-18 15:21:00,
2013-08-18 10:27:00,74.1,61.6,30.15,WNW,291,2.0,7.0,65,0.00,,,0.00,Wunderground v.1.15,2013-08-18 15:27:00,
2013-08-18 10:32:00,74.5,63.2,30.14,ENE,76,2.0,7.0,68,0.00,,,0.00,Wunderground v.1.15,2013-08-18 15:32:00,
2013-08-18 10:38:00,74.7,62.1,30.14,NNE,30,2.0,7.0,65,0.00,,,0.00,Wunderground v.1.15,2013-08-18 15:38:00,
2013-08-18 10:44:00,75.4,62.4,30.14,ENE,76,2.0,7.0,64,0.00,,,0.00,Wunderground v.1.15,2013-08-18 15:44:00,
2013-08-18 10:50:00,75.9,63.3,30.14,ENE,72,1.0,7.0,65,0.00,,,0.00,Wunderground v.1.15,2013-08-18 15:50:00,
2013-08-18 10:56:00,76.3,62.8,30.14,NNE,18,2.0,7.0,63,0.00,,,0.00,Wunderground v.1.15,2013-08-18 15:56:00,
2013-08-18 11:02:00,76.2,63.1,30.14,ENE,61,2.0,7.0,64,0.00,,,0.00,Wunderground v.1.15,2013-08-18 16:02:00,
2013-08-18 11:08:00,76.6,62.6,30.14,East,87,2.0,7.0,62,0.00,,,0.00,Wunderground v.1.15,2013-08-18 16:08:00,
2013-08-18 11:14:00,76.4,62.9,30.14,South,183,2.0,7.0,63,0.00,,,0.00,Wunderground v.1.15,2013-08-18 16:14:00,
2013-08-18 11:19:00,76.9,63.8,30.13,East,84,2.0,7.0,64,0.00,,,0.00,Wunderground v.1.15,2013-08-18 16:19:00,
2013-08-18 11:25:00,77.7,63.2,30.13,ENE,76,2.0,7.0,61,0.00,,,0.00,Wunderground v.1.15,2013-08-18 16:25:00,
2013-08-18 11:31:00,78.3,62.8,30.13,East,80,1.0,7.0,59,0.00,,,0.00,Wunderground v.1.15,2013-08-18 16:31:00,
2013-08-18 11:37:00,78.1,61.6,30.13,East,81,2.0,7.0,57,0.00,,,0.00,Wunderground v.1.15,2013-08-18 16:37:00,
2013-08-18 11:42:00,77.7,61.7,30.13,South,186,2.0,7.0,58,0.00,,,0.00,Wunderground v.1.15,2013-08-18 16:42:00,
2013-08-18 11:48:00,77.9,62.4,30.13,ENE,70,3.0,7.0,59,0.00,,,0.00,Wunderground v.1.15,2013-08-18 16:48:00,
2013-08-18 11:54:00,78.4,61.9,30.13,NNE,24,2.0,7.0,57,0.00,,,0.00,Wunderground v.1.15,2013-08-18 16:54:00,
2013-08-18 12:00:00,78.8,62.3,30.13,NW,309,2.0,2.0,57,0.00,,,0.00,Wunderground v.1.15,2013-08-18 17:00:00,
2013-08-18 12:05:00,78.8,61.8,30.13,East,79,2.0,7.0,56,0.00,,,0.00,Wunderground v.1.15,2013-08-18 17:05:00,
2013-08-18 12:11:00,79.6,62.0,30.13,NE,46,1.0,7.0,55,0.00,,,0.00,Wunderground v.1.15,2013-08-18 17:11:00,
2013-08-18 12:17:00,79.9,60.7,30.12,ENE,62,2.0,7.0,52,0.00,,,0.00,Wunderground v.1.15,2013-08-18 17:17:00,
2013-08-18 12:23:00,79.7,60.5,30.12,ENE,75,2.0,7.0,52,0.00,,,0.00,Wunderground v.1.15,2013-08-18 17:23:00,
2013-08-18 12:28:00,80.2,61.5,30.12,WNW,285,2.0,7.0,53,0.00,,,0.00,Wunderground v.1.15,2013-08-18 17:28:00,
2013-08-18 12:34:00,80.0,60.2,30.12,ENE,63,2.0,7.0,51,0.00,,,0.00,Wunderground v.1.15,2013-08-18 17:34:00,
2013-08-18 12:40:00,79.3,60.1,30.12,ENE,75,2.0,2.0,52,0.00,,,0.00,Wunderground v.1.15,2013-08-18 17:40:00,
2013-08-18 12:46:00,78.9,60.3,30.12,ENE,71,2.0,7.0,53,0.00,,,0.00,Wunderground v.1.15,2013-08-18 17:46:00,
2013-08-18 12:52:00,79.1,61.5,30.11,NNE,22,3.0,7.0,55,0.00,,,0.00,Wunderground v.1.15,2013-08-18 17:52:00,
2013-08-18 12:58:00,78.0,61.0,30.11,ENE,77,2.0,7.0,56,0.00,,,0.00,Wunderground v.1.15,2013-08-18 17:58:00,
2013-08-18 13:04:00,78.9,61.4,30.11,NNW,344,1.0,7.0,55,0.00,,,0.00,Wunderground v.1.15,2013-08-18 18:04:00,
2013-08-18 13:09:00,79.8,61.1,30.11,NE,35,1.0,7.0,53,0.00,,,0.00,Wunderground v.1.15,2013-08-18 18:09:00,
2013-08-18 13:15:00,80.7,61.4,30.11,NW,311,1.0,7.0,52,0.00,,,0.00,Wunderground v.1.15,2013-08-18 18:15:00,
2013-08-18 13:21:00,80.5,60.7,30.11,ESE,120,1.0,7.0,51,0.00,,,0.00,Wunderground v.1.15,2013-08-18 18:21:00,
2013-08-18 13:27:00,80.7,62.5,30.11,ENE,77,0.0,7.0,54,0.00,,,0.00,Wunderground v.1.15,2013-08-18 18:27:00,
2013-08-18 13:32:00,79.8,60.1,30.10,East,80,0.0,7.0,51,0.00,,,0.00,Wunderground v.1.15,2013-08-18 18:32:00,
2013-08-18 13:38:00,79.3,60.7,30.10,WNW,288,0.0,7.0,53,0.00,,,0.00,Wunderground v.1.15,2013-08-18 18:38:00,
2013-08-18 13:44:00,79.6,59.9,30.10,NE,42,2.0,7.0,51,0.00,,,0.00,Wunderground v.1.15,2013-08-18 18:44:00,
2013-08-18 13:50:00,79.7,60.5,30.09,ENE,60,1.0,1.0,52,0.00,,,0.00,Wunderground v.1.15,2013-08-18 18:50:00,
2013-08-18 13:56:00,79.8,60.6,30.09,WNW,282,1.0,7.0,52,0.00,,,0.00,Wunderground v.1.15,2013-08-18 18:56:00,
2013-08-18 14:02:00,79.7,60.0,30.09,ENE,72,1.0,7.0,51,0.00,,,0.00,Wunderground v.1.15,2013-08-18 19:02:00,
2013-08-18 14:08:00,80.3,62.7,30.09,South,187,1.0,7.0,55,0.00,,,0.00,Wunderground v.1.15,2013-08-18 19:08:00,
2013-08-18 14:13:00,80.9,61.6,30.09,ENE,78,1.0,7.0,52,0.00,,,0.00,Wunderground v.1.15,2013-08-18 19:13:00,
2013-08-18 14:19:00,80.8,59.9,30.08,East,86,1.0,7.0,49,0.00,,,0.00,Wunderground v.1.15,2013-08-18 19:19:00,
2013-08-18 14:25:00,78.9,60.3,30.08,WNW,296,2.0,7.0,53,0.00,,,0.00,Wunderground v.1.15,2013-08-18 19:25:00,
2013-08-18 14:31:00,78.4,60.4,30.08,SSE,147,2.0,7.0,54,0.00,,,0.00,Wunderground v.1.15,2013-08-18 19:31:00,
2013-08-18 14:36:00,78.7,60.1,30.08,WNW,287,0.0,7.0,53,0.00,,,0.00,Wunderground v.1.15,2013-08-18 19:36:00,
2013-08-18 14:42:00,78.4,60.4,30.08,ENE,75,0.0,7.0,54,0.00,,,0.00,Wunderground v.1.15,2013-08-18 19:42:00,
2013-08-18 14:48:00,79.3,60.7,30.08,West,267,1.0,7.0,53,0.00,,,0.00,Wunderground v.1.15,2013-08-18 19:48:00,
2013-08-18 14:54:00,79.3,60.1,30.08,WNW,282,2.0,7.0,52,0.00,,,0.00,Wunderground v.1.15,2013-08-18 19:54:00,
2013-08-18 15:06:00,79.7,61.1,30.07,SE,143,0.0,7.0,53,0.00,,,0.00,Wunderground v.1.15,2013-08-18 20:06:00,
2013-08-18 15:12:00,80.1,60.9,30.07,ENE,63,0.0,7.0,52,0.00,,,0.00,Wunderground v.1.15,2013-08-18 20:12:00,
2013-08-18 15:18:00,80.6,60.8,30.07,NW,311,1.0,7.0,51,0.00,,,0.00,Wunderground v.1.15,2013-08-18 20:18:00,
2013-08-18 15:24:00,80.8,59.9,30.06,ESE,122,1.0,7.0,49,0.00,,,0.00,Wunderground v.1.15,2013-08-18 20:24:00,
2013-08-18 15:29:00,81.4,61.5,30.06,NE,40,0.0,7.0,51,0.00,,,0.00,Wunderground v.1.15,2013-08-18 20:29:00,
2013-08-18 15:35:00,81.3,62.0,30.06,ESE,111,0.0,7.0,52,0.00,,,0.00,Wunderground v.1.15,2013-08-18 20:35:00,
2013-08-18 15:41:00,80.4,60.1,30.06,NW,307,0.0,7.0,50,0.00,,,0.00,Wunderground v.1.15,2013-08-18 20:41:00,
2013-08-18 15:47:00,79.7,60.5,30.06,SSE,158,1.0,7.0,52,0.00,,,0.00,Wunderground v.1.15,2013-08-18 20:47:00,
2013-08-18 15:53:00,80.3,60.5,30.06,East,98,1.0,7.0,51,0.00,,,0.00,Wunderground v.1.15,2013-08-18 20:53:00,
2013-08-18 15:59:00,80.6,61.3,30.06,SSE,165,0.0,7.0,52,0.00,,,0.00,Wunderground v.1.15,2013-08-18 20:59:00,
2013-08-18 16:05:00,80.1,60.9,30.06,SSW,203,0.0,7.0,52,0.00,,,0.00,Wunderground v.1.15,2013-08-18 21:05:00,
2013-08-18 16:10:00,79.9,60.2,30.06,SE,142,0.0,7.0,51,0.00,,,0.00,Wunderground v.1.15,2013-08-18 21:10:00,
2013-08-18 16:16:00,79.4,59.7,30.06,West,273,0.0,7.0,51,0.00,,,0.00,Wunderground v.1.15,2013-08-18 21:16:00,
2013-08-18 16:22:00,79.8,60.6,30.06,West,281,0.0,7.0,52,0.00,,,0.00,Wunderground v.1.15,2013-08-18 21:22:00,
2013-08-18 16:28:00,80.2,60.4,30.06,ENE,74,0.0,7.0,51,0.00,,,0.00,Wunderground v.1.15,2013-08-18 21:28:00,
2013-08-18 16:34:00,80.0,60.2,30.06,SSE,165,0.0,7.0,51,0.00,,,0.00,Wunderground v.1.15,2013-08-18 21:34:00,
2013-08-18 16:40:00,80.5,60.7,30.06,ENE,65,1.0,1.0,51,0.00,,,0.00,Wunderground v.1.15,2013-08-18 21:40:00,
2013-08-18 16:46:00,80.9,61.6,30.06,WNW,299,0.0,7.0,52,0.00,,,0.00,Wunderground v.1.15,2013-08-18 21:46:00,
2013-08-18 16:52:00,81.0,61.7,30.06,ENE,78,0.0,7.0,52,0.00,,,0.00,Wunderground v.1.15,2013-08-18 21:52:00,
2013-08-18 16:57:00,80.8,61.0,30.06,SSE,158,0.0,7.0,51,0.00,,,0.00,Wunderground v.1.15,2013-08-18 21:57:00,
2013-08-18 17:02:00,80.6,61.3,30.06,NNW,334,0.0,7.0,52,0.00,,,0.00,Wunderground v.1.15,2013-08-18 22:02:00,
2013-08-18 17:08:00,80.7,60.9,30.06,NE,34,0.0,7.0,51,0.00,,,0.00,Wunderground v.1.15,2013-08-18 22:08:00,
2013-08-18 17:14:00,80.8,60.4,30.06,ENE,67,0.0,7.0,50,0.00,,,0.00,Wunderground v.1.15,2013-08-18 22:14:00,
2013-08-18 17:19:00,81.0,61.2,30.06,ENE,78,0.0,7.0,51,0.00,,,0.00,Wunderground v.1.15,2013-08-18 22:19:00,
2013-08-18 17:25:00,81.3,60.3,30.06,NE,46,0.0,7.0,49,0.00,,,0.00,Wunderground v.1.15,2013-08-18 22:25:00,
2013-08-18 17:30:00,81.4,62.1,30.06,East,84,0.0,7.0,52,0.00,,,0.00,Wunderground v.1.15,2013-08-18 22:30:00,
2013-08-18 17:36:00,81.5,60.5,30.06,East,84,0.0,7.0,49,0.00,,,0.00,Wunderground v.1.15,2013-08-18 22:36:00,
2013-08-18 17:42:00,81.2,60.8,30.06,ENE,68,0.0,7.0,50,0.00,,,0.00,Wunderground v.1.15,2013-08-18 22:42:00,
2013-08-18 17:48:00,80.8,59.9,30.05,NE,53,0.0,7.0,49,0.00,,,0.00,Wunderground v.1.15,2013-08-18 22:48:00,
2013-08-18 17:53:00,81.0,60.0,30.05,NNW,330,0.0,7.0,49,0.00,,,0.00,Wunderground v.1.15,2013-08-18 22:53:00,
2013-08-18 17:59:00,81.3,60.3,30.05,East,91,0.0,7.0,49,0.00,,,0.00,Wunderground v.1.15,2013-08-18 22:59:00,
2013-08-18 18:04:00,81.4,59.8,30.05,ENE,65,0.0,7.0,48,0.00,,,0.00,Wunderground v.1.15,2013-08-18 23:04:00,
2013-08-18 18:09:00,81.0,60.6,30.05,ENE,77,0.0,7.0,50,0.00,,,0.00,Wunderground v.1.15,2013-08-18 23:09:00,
2013-08-18 18:15:00,80.7,60.9,30.05,East,79,0.0,7.0,51,0.00,,,0.00,Wunderground v.1.15,2013-08-18 23:15:00,
2013-08-18 18:20:00,81.3,61.4,30.05,East,96,0.0,7.0,51,0.00,,,0.00,Wunderground v.1.15,2013-08-18 23:20:00,
2013-08-18 18:26:00,81.0,60.6,30.05,NE,42,0.0,7.0,50,0.00,,,0.00,Wunderground v.1.15,2013-08-18 23:26:00,
2013-08-18 18:31:00,81.2,60.8,30.05,ENE,72,0.0,7.0,50,0.00,,,0.00,Wunderground v.1.15,2013-08-18 23:31:00,
2013-08-18 18:37:00,81.6,61.7,30.04,East,83,0.0,7.0,51,0.00,,,0.00,Wunderground v.1.15,2013-08-18 23:37:00,
2013-08-18 18:43:00,80.7,60.3,30.04,ESE,113,0.0,7.0,50,0.00,,,0.00,Wunderground v.1.15,2013-08-18 23:43:00,
2013-08-18 18:49:00,80.0,60.8,30.04,ESE,113,0.0,7.0,52,0.00,,,0.00,Wunderground v.1.15,2013-08-18 23:49:00,
2013-08-18 18:55:00,79.6,61.0,30.03,ESE,113,0.0,7.0,53,0.00,,,0.00,Wunderground v.1.15,2013-08-18 23:55:00,
2013-08-18 19:01:00,79.2,61.6,30.03,ESE,114,0.0,7.0,55,0.00,,,0.00,Wunderground v.1.15,2013-08-19 00:01:00,
2013-08-18 19:07:00,78.6,61.6,30.03,ESE,114,0.0,7.0,56,0.00,,,0.00,Wunderground v.1.15,2013-08-19 00:07:00,
2013-08-18 19:13:00,78.1,61.6,30.03,ESE,114,0.0,7.0,57,0.00,,,0.00,Wunderground v.1.15,2013-08-19 00:13:00,
2013-08-18 19:19:00,77.5,61.6,30.03,ESE,114,0.0,7.0,58,0.00,,,0.00,Wunderground v.1.15,2013-08-19 00:19:00,
2013-08-18 19:24:00,77.0,61.6,30.03,ESE,114,0.0,7.0,59,0.00,,,0.00,Wunderground v.1.15,2013-08-19 00:24:00,
2013-08-18 19:30:00,76.4,61.5,30.03,ESE,114,0.0,7.0,60,0.00,,,0.00,Wunderground v.1.15,2013-08-19 00:30:00,
2013-08-18 19:36:00,75.7,61.8,30.03,ESE,114,0.0,7.0,62,0.00,,,0.00,Wunderground v.1.15,2013-08-19 00:36:00,
2013-08-18 19:41:00,75.2,61.7,30.03,ESE,114,0.0,7.0,63,0.00,,,0.00,Wunderground v.1.15,2013-08-19 00:41:00,
2013-08-18 19:46:00,74.8,62.2,30.03,ESE,115,0.0,7.0,65,0.00,,,0.00,Wunderground v.1.15,2013-08-19 00:46:00,
2013-08-18 19:52:00,74.0,62.3,30.03,ESE,115,0.0,7.0,67,0.00,,,0.00,Wunderground v.1.15,2013-08-19 00:52:00,
2013-08-18 19:58:00,73.3,62.1,30.03,ESE,114,0.0,7.0,68,0.00,,,0.00,Wunderground v.1.15,2013-08-19 00:58:00,
2013-08-18 20:03:00,72.8,61.6,30.03,ESE,114,0.0,7.0,68,0.00,,,0.00,Wunderground v.1.15,2013-08-19 01:03:00,
2013-08-18 20:08:00,72.4,61.2,30.03,ESE,114,0.0,7.0,68,0.00,,,0.00,Wunderground v.1.15,2013-08-19 01:08:00,
2013-08-18 20:14:00,72.2,61.0,30.03,ESE,114,0.0,7.0,68,0.00,,,0.00,Wunderground v.1.15,2013-08-19 01:14:00,
2013-08-18 20:20:00,72.1,61.0,30.03,ESE,115,0.0,7.0,68,0.00,,,0.00,Wunderground v.1.15,2013-08-19 01:20:00,
2013-08-18 20:25:00,71.9,60.8,30.03,ESE,115,0.0,7.0,68,0.00,,,0.00,Wunderground v.1.15,2013-08-19 01:25:00,
2013-08-18 20:31:00,71.6,60.9,30.03,ESE,115,0.0,7.0,69,0.00,,,0.00,Wunderground v.1.15,2013-08-19 01:31:00,
2013-08-18 20:37:00,71.4,60.7,30.03,ESE,115,0.0,7.0,69,0.00,,,0.00,Wunderground v.1.15,2013-08-19 01:37:00,
2013-08-18 20:43:00,71.2,60.5,30.03,ESE,114,0.0,7.0,69,0.00,,,0.00,Wunderground v.1.15,2013-08-19 01:43:00,
2013-08-18 20:48:00,71.2,60.5,30.03,ESE,114,0.0,7.0,69,0.00,,,0.00,Wunderground v.1.15,2013-08-19 01:48:00,
2013-08-18 20:54:00,71.0,60.7,30.03,ESE,115,0.0,7.0,70,0.00,,,0.00,Wunderground v.1.15,2013-08-19 01:54:00,
2013-08-18 21:00:00,70.9,60.6,30.04,ESE,115,0.0,7.0,70,0.00,,,0.00,Wunderground v.1.15,2013-08-19 02:00:00,
2013-08-18 21:06:00,70.8,60.5,30.04,ESE,114,0.0,7.0,70,0.00,,,0.00,Wunderground v.1.15,2013-08-19 02:06:00,
2013-08-18 21:12:00,70.7,60.4,30.04,ESE,114,0.0,7.0,70,0.00,,,0.00,Wunderground v.1.15,2013-08-19 02:12:00,
2013-08-18 21:18:00,70.5,60.2,30.04,ESE,114,0.0,7.0,70,0.00,,,0.00,Wunderground v.1.15,2013-08-19 02:18:00,
2013-08-18 21:23:00,70.3,60.4,30.04,ESE,115,0.0,7.0,71,0.00,,,0.00,Wunderground v.1.15,2013-08-19 02:23:00,
2013-08-18 21:29:00,70.0,60.6,30.04,ESE,114,0.0,7.0,72,0.00,,,0.00,Wunderground v.1.15,2013-08-19 02:29:00,
2013-08-18 21:35:00,69.6,60.2,30.05,ESE,114,0.0,7.0,72,0.00,,,0.00,Wunderground v.1.15,2013-08-19 02:35:00,
2013-08-18 21:41:00,69.5,60.1,30.05,ESE,114,0.0,7.0,72,0.00,,,0.00,Wunderground v.1.15,2013-08-19 02:41:00,
2013-08-18 21:47:00,69.3,60.3,30.05,ESE,114,0.0,7.0,73,0.00,,,0.00,Wunderground v.1.15,2013-08-19 02:47:00,
2013-08-18 21:53:00,69.2,60.2,30.05,ESE,114,0.0,7.0,73,0.00,,,0.00,Wunderground v.1.15,2013-08-19 02:53:00,
2013-08-18 21:59:00,69.0,60.4,30.05,ESE,114,0.0,7.0,74,0.00,,,0.00,Wunderground v.1.15,2013-08-19 02:59:00,
2013-08-18 22:04:00,68.9,60.3,30.05,ESE,114,0.0,7.0,74,0.00,,,0.00,Wunderground v.1.15,2013-08-19 03:04:00,
2013-08-18 22:09:00,68.8,60.2,30.05,ESE,115,0.0,7.0,74,0.00,,,0.00,Wunderground v.1.15,2013-08-19 03:09:00,
2013-08-18 22:14:00,68.6,60.4,30.05,ESE,115,0.0,7.0,75,0.00,,,0.00,Wunderground v.1.15,2013-08-19 03:14:00,
2013-08-18 22:20:00,68.5,60.3,30.05,ESE,115,0.0,7.0,75,0.00,,,0.00,Wunderground v.1.15,2013-08-19 03:20:00,
2013-08-18 22:26:00,68.4,60.2,30.05,ESE,115,0.0,7.0,75,0.00,,,0.00,Wunderground v.1.15,2013-08-19 03:26:00,
2013-08-18 22:32:00,68.4,60.2,30.05,ESE,115,0.0,7.0,75,0.00,,,0.00,Wunderground v.1.15,2013-08-19 03:32:00,
2013-08-18 22:38:00,68.1,60.2,30.05,ESE,114,0.0,7.0,76,0.00,,,0.00,Wunderground v.1.15,2013-08-19 03:38:00,
2013-08-18 22:44:00,67.7,60.2,30.05,ESE,115,0.0,7.0,77,0.00,,,0.00,Wunderground v.1.15,2013-08-19 03:44:00,
2013-08-18 22:49:00,67.3,60.2,30.05,ESE,115,0.0,7.0,78,0.00,,,0.00,Wunderground v.1.15,2013-08-19 03:49:00,
2013-08-18 22:54:00,66.9,60.2,30.05,ESE,114,0.0,7.0,79,0.00,,,0.00,Wunderground v.1.15,2013-08-19 03:54:00,
2013-08-18 23:00:00,66.6,60.2,30.04,ESE,114,0.0,7.0,80,0.00,,,0.00,Wunderground v.1.15,2013-08-19 04:00:00,
2013-08-18 23:01:00,66.5,60.1,30.04,ESE,115,0.0,7.0,80,0.00,,,0.00,Wunderground v.1.15,2013-08-19 04:01:00,
2013-08-18 23:02:00,66.4,60.0,30.05,ESE,114,0.0,7.0,80,0.00,,,0.00,Wunderground v.1.15,2013-08-19 04:02:00,
2013-08-18 23:03:00,66.4,60.0,30.05,ESE,120,0.0,7.0,80,0.00,,,0.00,Wunderground v.1.15,2013-08-19 04:03:00,
2013-08-18 23:09:00,66.3,60.3,30.05,SE,143,0.0,7.0,81,0.00,,,0.00,Wunderground v.1.15,2013-08-19 04:09:00,
2013-08-18 23:10:00,66.3,60.3,30.05,SE,144,0.0,7.0,81,0.00,,,0.00,Wunderground v.1.15,2013-08-19 04:10:00,
2013-08-18 23:15:00,66.4,60.0,30.05,SE,144,0.0,7.0,80,0.00,,,0.00,Wunderground v.1.15,2013-08-19 04:15:00,
2013-08-18 23:21:00,66.0,60.0,30.05,SE,143,0.0,7.0,81,0.00,,,0.00,Wunderground v.1.15,2013-08-19 04:21:00,
2013-08-18 23:26:00,65.9,59.9,30.05,SE,144,0.0,7.0,81,0.00,,,0.00,Wunderground v.1.15,2013-08-19 04:26:00,
2013-08-18 23:32:00,65.7,59.7,30.05,SE,143,0.0,7.0,81,0.00,,,0.00,Wunderground v.1.15,2013-08-19 04:32:00,
2013-08-18 23:38:00,65.9,59.9,30.05,SE,143,0.0,7.0,81,0.00,,,0.00,Wunderground v.1.15,2013-08-19 04:38:00,
2013-08-18 23:44:00,65.7,59.7,30.05,SE,143,0.0,7.0,81,0.00,,,0.00,Wunderground v.1.15,2013-08-19 04:44:00,
2013-08-18 23:49:00,65.3,59.7,30.06,SE,143,0.0,7.0,82,0.00,,,0.00,Wunderground v.1.15,2013-08-19 04:49:00,
2013-08-18 23:55:00,64.7,59.4,30.06,SE,143,0.0,7.0,83,0.00,,,0.00,Wunderground v.1.15,2013-08-19 04:55:00,